Find Starlink 6363

NORAD ID: 57375 Int'l Des: 2023-099 Owner: SPXS Country: US Constellation: starlink operational
LEOCIRCULAR

現在のビュー

3D地球を読み込み中...

About Starlink 6363

Starlink 6363 (NORAD 57375) is a starlink constellation satellite (v1.5) launched Jul 16, 2023 by SPXS of US. It operates in LEO, CIRCULAR orbit with a mass of 305.00 kg.

Starlink 6363について

説明を読み込み中...

次回通過

Passes for default location (London). Set your location on the main map for personalized predictions.

高度履歴

Loading altitude history...

軌道要素

1 57375U 23099AZ 26195.19074288 -.00000169 00000-0 33812-5 0 9991
2 57375 43.0024 247.4636 0001133 276.1852 83.8871 15.27576079165548
Epoch: Jul 14, 2026 • Age: 5 hours

現在のステータス

高度 485.7 km
遠地点 / 近地点 N/A
速度 7.63 km/s
衛星直下点 37.34°N, 67.46°W
打ち上げ日 Jul 16, 2023
運用期間 2.9 years
タイプ internet

技術仕様

分類 Payload
質量 305.00 kg
乾燥質量 290.00 kg
総質量 305.00 kg
長さ 0.20 m
直径 2.80 m
スパン 9.00 m
形状 Box + pan
製造者 SPXS
バスタイプ Starlink
フェーズステータス In Orbit
所有者/国 SPXS/US

Most Searched